Location: Ladd Observatory
(41.8387°N, 71.3996°W)
Time: 21:49:21
(UTC-04:00)

ISS - Visible Passes

Search period start: 25 October 2014 00:00
Search period end: 03 November 2014 23:00
Orbit: 412 x 416 km, 51.6° (Epoch: 25 October)

Date Brightness Start Highest point End Pass type
(mag) Time Alt. Az. Time Alt. Az. Time Alt. Az.
25 Oct -3.3 18:51:36 10° NW 18:54:57 90° SSE 18:57:22 18° SE visible
26 Oct -0.8 19:39:43 10° W 19:42:09 19° SW 19:43:44 14° SSW visible
27 Oct -1.5 18:50:02 10° WNW 18:53:04 32° SW 18:56:05 10° SSE visible
29 Oct -0.1 18:49:23 10° WSW 18:50:52 12° SW 18:52:20 10° SSW visible
